This is the latest recevied weather packets stored in our database for station/object KC3SOZ. If no packets are shown the sender has not sent any weather packets the latest 10 day(s).
| Time | Temp. | Humidity | Pressure | Rain* | Wind** | Luminosity | Snow |
|---|---|---|---|---|---|---|---|
| 1777653910 | 13.89° C | 54% | 1013.5 hPa | 0 mm | - | 829 W/m² | - |
| 1777653606 | 13.33° C | 58% | 1013.7 hPa | 0 mm | - | 827 W/m² | - |
| 1777653303 | 13.89° C | 52% | 1013.7 hPa | 0 mm | - | 824 W/m² | - |
| 1777652999 | 13.33° C | 56% | 1014 hPa | 0 mm | - | 820 W/m² | - |
| 1777652696 | 13.89° C | 52% | 1013.8 hPa | 0 mm | - | 816 W/m² | - |
| 1777652393 | 13.89° C | 50% | 1013.8 hPa | 0 mm | - | 816 W/m² | - |
| 1777652090 | 13.89° C | 56% | 1014.1 hPa | 0 mm | - | 814 W/m² | - |
| 1777651786 | 13.33° C | 53% | 1014 hPa | 0 mm | - | 807 W/m² | - |
| 1777651483 | 13.33° C | 58% | 1014.1 hPa | 0 mm | - | 800 W/m² | - |
| 1777651180 | 13.33° C | 60% | 1014.2 hPa | 0 mm | - | 798 W/m² | - |
| 1777650877 | 13.33° C | 54% | 1014.3 hPa | 0 mm | - | 793 W/m² | - |
| 1777650574 | 13.33° C | 55% | 1014.4 hPa | 0 mm | - | 786 W/m² | - |
| 1777650271 | 12.78° C | 57% | 1014.3 hPa | 0 mm | - | 781 W/m² | - |
| 1777649968 | 12.78° C | 52% | 1014.4 hPa | 0 mm | - | 776 W/m² | - |
| 1777649666 | 12.78° C | 51% | 1014.8 hPa | 0 mm | - | 772 W/m² | - |
| 1777649361 | 12.78° C | 51% | 1014.5 hPa | 0 mm | - | 742 W/m² | - |
| 1777649059 | 12.78° C | 52% | 1014.6 hPa | 0 mm | - | 722 W/m² | - |
| 1777648756 | 12.22° C | 53% | 1014.6 hPa | 0 mm | - | 745 W/m² | - |
| 1777648453 | 12.22° C | 53% | 1014.6 hPa | 0 mm | - | 699 W/m² | - |
| 1777648149 | 11.67° C | 51% | 1014.6 hPa | 0 mm | - | 583 W/m² | - |
| 1777647845 | 12.22° C | 55% | 1014.6 hPa | 0 mm | - | 526 W/m² | - |
| 1777647542 | 12.22° C | 53% | 1014.9 hPa | 0 mm | - | 620 W/m² | - |
| 1777647238 | 11.67° C | 55% | 1014.8 hPa | 0 mm | - | 579 W/m² | - |
| 1777646936 | 12.22° C | 55% | 1014.8 hPa | 0 mm | - | 691 W/m² | - |
| 1777646631 | 11.67° C | 59% | 1014.9 hPa | 0 mm | - | 680 W/m² | - |
* Rain latest hour (hover to see other rain measurements)
** Current wind speed in m/s (hover to see current wind gust speed)